Location: Meriden
(44.0740°N, 93.3870°W)
Time: 11:04:09
(UTC-06:00)

Amateur Radio Satellites - All Passes

Search period start: 11 February 2016 10:34
Search period end: 12 February 2016 10:34
Location: Meriden, 44.0740°N, 93.3870°W

Satellite Date Start Highest point End Downlink Frequencies (MHz)
Time Altitude Azimuth
POPSAT HIP 1 11 Feb 10:39:59 10:44:13 76° 75° (ENE) 10:48:27 437.405
ZACube-1 11 Feb 10:43:06 10:46:48 30° 291° (WNW) 10:50:32 437.345
NANOSAT C BR1 11 Feb 10:43:40 10:47:53 82° 77° (ENE) 10:52:08 145.865
DUCHIFAT 1 11 Feb 10:44:22 10:48:35 80° 75° (ENE) 10:52:48 145.980
HUMSAT D 11 Feb 10:47:40 10:51:51 86° 283° (WNW) 10:56:05 437.325/437.525
FUNcube-1 11 Feb 10:51:27 10:54:59 26° 292° (WNW) 10:58:33 145.935
QB50P1 11 Feb 10:52:29 10:56:43 77° 257° (WSW) 11:00:58 145.935-145.965
50 SAT 11 Feb 10:56:48 11:00:01 25° 96° (E) 11:03:13 437.505
VELOX 1 11 Feb 11:00:12 11:03:48 24° 94° (E) 11:07:22 145.980
ANTELSAT 11 Feb 11:03:10 11:05:51 16° 268° (W) 11:08:33 437.575/2403.000
CUSAT 1 11 Feb 11:03:18 11:06:00 13° 54° (NE) 11:08:26 437.405
DELFI C3 11 Feb 11:03:30 11:06:47 24° 293° (WNW) 11:10:04 145.870
TIGRISAT 11 Feb 11:09:50 11:12:14 15° 269° (W) 11:14:37 435.000
PCSat 11 Feb 11:11:12 11:16:36 71° 303° (WNW) 11:22:03 145.827
AIST 1 11 Feb 11:14:41 11:18:50 40° 284° (WNW) 11:23:01
AISAT 11 Feb 11:16:49 11:20:56 37° 98° (E) 11:25:00 437.250
UKube-1 11 Feb 11:20:42 11:24:41 35° 98° (E) 11:28:39 .
Oscar 11 11 Feb 11:23:59 11:25:15 11° 300° (WNW) 11:26:29 145.826/435.025
SPROUT 11 Feb 11:28:18 11:30:45 15° 91° (E) 11:33:10 437.525
CUBEBUG 1 11 Feb 11:31:42 11:35:54 44° 99° (E) 11:40:02 437.445
JAS-2 11 Feb 11:32:59 11:38:30 23° 60° (ENE) 11:43:39 435.910
DX 1 11 Feb 11:35:27 11:39:47 60° 102° (ESE) 11:44:04 434.975-435.025
BUGSAT 1 11 Feb 11:39:15 11:43:18 47° 260° (W) 11:47:20 437.445
ESTCUBE 1 11 Feb 11:44:57 11:49:32 82° 103° (ESE) 11:54:04 437.505/2401.250
POLYITAN 1 11 Feb 11:47:09 11:50:18 20° 267° (W) 11:53:29 437.675
QB50P2 11 Feb 11:47:48 11:50:53 20° 267° (W) 11:53:59 145.880/145.840
DANDE 11 Feb 11:48:37 11:54:01 23° 59° (ENE) 11:58:30 436.750
AO-85 11 Feb 11:49:07 11:53:46 28° 319° (NW) 11:58:28 145.980
RS-15 11 Feb 11:50:05 12:01:13 83° 121° (ESE) 12:13:02 29.354- 29.394
Oscar 19 11 Feb 11:51:17 11:55:42 29° 65° (ENE) 12:00:06 437.125/150
SO-50 11 Feb 11:57:20 12:01:08 22° 38° (NE) 12:04:51 436.795
Cosmos 2499 11 Feb 12:14:33 12:20:30 19° 301° (WNW) 12:26:31 435.465 / 435.565
50 SAT 11 Feb 12:30:51 12:33:57 24° 292° (WNW) 12:37:03 437.505
Gurwin Techsat 1B 11 Feb 12:35:42 12:40:12 29° 65° (ENE) 12:44:43 435.225
VELOX 1 11 Feb 12:36:21 12:40:21 34° 291° (WNW) 12:44:18 145.980
CUSAT 1 11 Feb 12:43:45 12:49:40 87° 261° (W) 12:54:01 437.405
YUBILEINY 11 Feb 12:50:26 12:57:34 26° 64° (ENE) 13:04:39 435.215
AISAT 11 Feb 12:53:46 12:57:13 23° 295° (WNW) 13:00:39 437.250
UKube-1 11 Feb 12:57:08 13:00:34 23° 295° (WNW) 13:03:59 .
PCSat 11 Feb 12:57:45 13:01:01 16° 324° (NW) 13:04:17 145.827
SPROUT 11 Feb 13:02:53 13:07:02 52° 288° (WNW) 13:11:10 437.525
ITAMSAT 1 11 Feb 13:03:53 13:08:15 28° 64° (ENE) 13:12:37 435.822/435.867
BEESAT 11 Feb 13:04:09 13:05:45 11° 88° (E) 13:07:20 436.000
Cosmos 2491 11 Feb 13:04:48 13:07:20 12° 71° (ENE) 13:09:51 435.465 / 435.565
TISAT 1 11 Feb 13:05:15 13:09:25 61° 101° (ESE) 13:13:32 437.305
CUBEBUG 1 11 Feb 13:08:46 13:11:53 19° 296° (WNW) 13:14:59 437.445
DX 1 11 Feb 13:13:02 13:15:29 15° 299° (WNW) 13:17:57 434.975-435.025
JAS-2 11 Feb 13:15:18 13:22:57 79° 256° (WSW) 13:29:53 435.910
AO-7 11 Feb 13:17:09 13:23:36 26° 51° (NE) 13:30:03 29.400- 29.500
ESTCUBE 1 11 Feb 13:23:52 13:25:41 12° 301° (WNW) 13:27:30 437.505/2401.250
Oscar 19 11 Feb 13:30:03 13:34:52 38° 262° (W) 13:39:43 437.125/150
DANDE 11 Feb 13:30:56 13:37:54 65° 266° (W) 13:43:07 436.750
SO-50 11 Feb 13:37:19 13:42:07 67° 239° (WSW) 13:46:44 436.795
SWISSCUBE 11 Feb 13:54:24 13:58:56 40° 98° (E) 14:03:27 437.505
RS-15 11 Feb 14:04:37 14:15:04 39° 329° (NNW) 14:26:05 29.354- 29.394
Gurwin Techsat 1B 11 Feb 14:15:01 14:19:59 40° 262° (W) 14:25:00 435.225
M-CUBED/EXP-1 PRIME 11 Feb 14:20:46 14:23:12 18° 62° (ENE) 14:25:32 437.505
AUBIESAT-1 11 Feb 14:28:54 14:31:21 18° 62° (ENE) 14:33:44 437.475
ITUPSAT 1 11 Feb 14:32:00 14:36:51 84° 104° (ESE) 14:41:41 437.325
BEESAT 11 Feb 14:39:19 14:44:08 82° 286° (WNW) 14:48:56 436.000
HORYU 2 11 Feb 14:41:26 14:44:31 19° 63° (ENE) 14:47:38 437.375
TISAT 1 11 Feb 14:42:29 14:44:36 14° 298° (WNW) 14:46:42 437.305
ITAMSAT 1 11 Feb 14:42:40 14:47:32 41° 262° (W) 14:52:27 435.822/435.867
YUBILEINY 11 Feb 14:46:28 14:55:19 76° 266° (W) 15:04:04 435.215
Cosmos 2491 11 Feb 14:53:43 15:02:15 64° 92° (E) 15:10:49 435.465 / 435.565
JAS-2 11 Feb 15:04:42 15:08:44 15° 273° (W) 15:12:37 435.910
AO-7 11 Feb 15:07:04 15:15:28 85° 252° (WSW) 15:23:54 29.400- 29.500
ISS 11 Feb 15:08:22 15:11:21 34° 140° (SE) 15:14:20 145.825
Cosmos 2504 11 Feb 15:12:23 15:20:28 41° 71° (ENE) 15:28:01 435.465 / 435.565
STARS 11 Feb 15:28:15 15:31:56 26° 95° (E) 15:35:35 437.465
SWISSCUBE 11 Feb 15:32:39 15:36:31 25° 295° (WNW) 15:40:24 437.505
KKS-1 11 Feb 15:49:42 15:54:08 80° 101° (ESE) 15:58:34 437.445
M-CUBED/EXP-1 PRIME 11 Feb 15:54:29 15:57:42 30° 256° (WSW) 16:00:46 437.505
MOZHAYETS 4 11 Feb 15:56:31 16:00:53 39° 97° (E) 16:05:15
AUBIESAT-1 11 Feb 16:02:37 16:05:48 30° 257° (WSW) 16:08:51 437.475
ITUPSAT 1 11 Feb 16:11:46 16:14:01 13° 302° (WNW) 16:16:16 437.325
O/OREOS (USA 219) 11 Feb 16:15:49 16:19:10 20° 53° (NE) 16:22:31 437.305
HORYU 2 11 Feb 16:16:31 16:20:46 46° 260° (W) 16:25:03 437.375
BEESAT 11 Feb 16:19:48 16:21:08 11° 303° (WNW) 16:22:28 436.000
RS-15 11 Feb 16:22:27 16:32:02 27° 3° (N) 16:41:55 29.354- 29.394
CUTE-I 11 Feb 16:34:32 16:38:50 25° 63° (ENE) 16:43:09 437.470
BRITE-PL 11 Feb 16:40:36 16:44:06 17° 61° (ENE) 16:47:31 437.365/2234.400
CUBESAT XI-V 11 Feb 16:43:54 16:46:13 13° 89° (E) 16:48:31 437.345
ISS 11 Feb 16:44:41 16:47:46 39° 338° (NNW) 16:50:52 145.825
YUBILEINY 11 Feb 16:45:58 16:50:29 15° 287° (WNW) 16:55:00 435.215
Cubesat XI-IV 11 Feb 16:48:22 16:53:03 33° 66° (ENE) 16:57:47 437.490
BEESAT 3 11 Feb 16:50:19 16:54:15 61° 121° (ESE) 16:58:12 437.485
LilacSat-2 11 Feb 16:50:31 16:53:21 20° 67° (ENE) 16:56:10 437.200
Cosmos 2491 11 Feb 16:52:14 16:59:42 31° 293° (WNW) 17:07:12 435.465 / 435.565
AO-85 11 Feb 16:58:46 17:02:19 18° 32° (NNE) 17:05:43 145.980
AO-7 11 Feb 17:04:05 17:09:23 18° 271° (W) 17:14:43 29.400- 29.500
STARS 11 Feb 17:04:27 17:08:19 31° 292° (WNW) 17:12:09 437.465
Cosmos 2504 11 Feb 17:05:52 17:13:56 46° 273° (W) 17:21:28 435.465 / 435.565
BEESAT 2 11 Feb 17:17:56 17:21:56 77° 125° (SE) 17:25:59 435.950
HO-68 11 Feb 17:24:05 17:27:17 14° 47° (NE) 17:30:28 435.675
KKS-1 11 Feb 17:28:24 17:30:05 12° 301° (WNW) 17:31:47 437.445
MOZHAYETS 4 11 Feb 17:34:10 17:37:51 24° 294° (WNW) 17:41:32
GOMX 1 11 Feb 17:35:40 17:39:58 26° 66° (ENE) 17:44:07 467.674
AIST 2 11 Feb 17:51:43 17:54:40 19° 112° (ESE) 17:57:40 435.215
O/OREOS (USA 219) 11 Feb 17:54:26 17:58:54 53° 251° (WSW) 18:03:22 437.305
STRAND 1 11 Feb 18:10:37 18:13:13 14° 89° (E) 18:15:50 437.568
CUTE-I 11 Feb 18:13:28 18:18:35 47° 261° (W) 18:23:46 437.470
PCSat 11 Feb 18:14:50 18:19:14 24° 43° (NE) 18:23:38 145.827
GONETS M04 11 Feb 18:16:08 18:22:34 22° 61° (ENE) 18:28:58
BRITE-PL 11 Feb 18:16:15 18:21:57 81° 257° (WSW) 18:27:28 437.365/2234.400
CANX-2 11 Feb 18:18:04 18:20:04 13° 62° (ENE) 18:22:03 2200.000
CUBESAT XI-V 11 Feb 18:19:24 18:24:06 68° 286° (WNW) 18:28:44 437.345
ISS 11 Feb 18:22:15 18:24:49 21° 358° (N) 18:27:22 145.825
LilacSat-2 11 Feb 18:24:05 18:27:30 31° 264° (W) 18:30:54 437.200
Cubesat XI-IV 11 Feb 18:28:13 18:33:04 36° 263° (W) 18:37:58 437.490
BEESAT 3 11 Feb 18:29:36 18:32:23 18° 320° (NW) 18:35:10 437.485
RS-15 11 Feb 18:37:17 18:48:41 45° 36° (NE) 19:00:20 29.354- 29.394
AO-85 11 Feb 18:38:33 18:43:47 77° 55° (NE) 18:48:33 145.980
DOVE 4 11 Feb 18:44:03 18:48:58 56° 73° (ENE) 18:53:38 437.250
COMPASS 1 11 Feb 18:52:50 18:55:16 15° 63° (ENE) 18:57:42 437.405
BEESAT 2 11 Feb 18:57:52 19:00:21 16° 322° (NW) 19:02:51 435.950
PRISM 11 Feb 19:03:51 19:05:21 12° 90° (E) 19:06:50 437.425
CUTE 1.7 + AOD 2 11 Feb 19:06:09 19:09:59 35° 70° (ENE) 19:13:51 437.475
HO-68 11 Feb 19:06:33 19:13:33 60° 68° (ENE) 19:20:37 435.675
SEEDS 11 Feb 19:09:13 19:12:50 29° 68° (ENE) 19:16:29 437.485
GOMX 1 11 Feb 19:12:40 19:17:49 46° 262° (W) 19:22:45 467.674
UWE-3 11 Feb 19:17:36 19:18:49 11° 61° (ENE) 19:20:01 435.000/436.395/437.385
AAUSAT CUBESAT 2 11 Feb 19:18:34 19:21:49 23° 67° (ENE) 19:25:06 437.432
CUBEBUG 2 11 Feb 19:19:33 19:22:11 16° 64° (ENE) 19:24:48 437.445
CINEMA 3 11 Feb 19:24:16 19:28:40 48° 72° (ENE) 19:32:54 145.822/145.860
AIST 2 11 Feb 19:28:49 19:32:52 47° 309° (NW) 19:36:55 435.215
STRAND 1 11 Feb 19:47:48 19:52:59 77° 287° (WNW) 19:58:08 437.568
CANX-2 11 Feb 19:51:13 19:55:23 65° 259° (W) 19:59:37 2200.000
PCSat 11 Feb 19:57:43 20:03:06 65° 243° (WSW) 20:08:27 145.827
ISS 11 Feb 19:59:00 20:01:56 30° 18° (NNE) 20:04:52 145.825
BRITE-PL 11 Feb 19:59:14 20:01:07 12° 274° (W) 20:02:59 437.365/2234.400
ZACube-1 11 Feb 20:04:35 20:07:56 24° 67° (ENE) 20:11:17 437.345
Cosmos 2499 11 Feb 20:07:39 20:15:34 43° 71° (ENE) 20:22:54 435.465 / 435.565
GONETS M04 11 Feb 20:11:48 20:20:40 89° 262° (W) 20:29:31
FUNcube-1 11 Feb 20:12:21 20:15:53 27° 68° (ENE) 20:19:24 145.935
DELFI C3 11 Feb 20:16:33 20:19:37 22° 67° (ENE) 20:22:42 145.870
AO-85 11 Feb 20:20:47 20:23:32 15° 254° (WSW) 20:26:09 145.980
DOVE 4 11 Feb 20:23:31 20:26:56 18° 268° (W) 20:30:14 437.250
COMPASS 1 11 Feb 20:26:21 20:30:25 53° 260° (W) 20:34:31 437.405
PRISM 11 Feb 20:36:57 20:41:07 64° 286° (WNW) 20:45:13 437.425
Oscar 11 11 Feb 20:41:15 20:45:32 77° 76° (ENE) 20:49:51 145.826/435.025
CUTE 1.7 + AOD 2 11 Feb 20:42:43 20:45:56 21° 267° (W) 20:49:11 437.475
SEEDS 11 Feb 20:45:03 20:48:32 25° 266° (W) 20:52:03 437.485
RS-15 11 Feb 20:50:05 21:02:10 73° 242° (WSW) 21:14:23 29.354- 29.394
UWE-3 11 Feb 20:50:28 20:54:42 77° 257° (WSW) 20:58:54 435.000/436.395/437.385
AAUSAT CUBESAT 2 11 Feb 20:53:27 20:57:10 32° 263° (W) 21:00:56 437.432
CUBEBUG 2 11 Feb 20:54:17 20:58:28 50° 260° (W) 21:02:35 437.445
HO-68 11 Feb 20:55:41 21:01:40 28° 266° (W) 21:07:44 435.675
CINEMA 3 11 Feb 21:03:02 21:06:02 17° 268° (W) 21:09:00 145.822/145.860
ESTCUBE 1 11 Feb 21:12:51 21:14:04 11° 58° (ENE) 21:15:17 437.505/2401.250
AIST 1 11 Feb 21:19:56 21:24:13 55° 78° (ENE) 21:28:26
STRAND 1 11 Feb 21:29:34 21:31:17 12° 304° (NW) 21:33:00 437.568
ISS 11 Feb 21:35:20 21:38:32 56° 216° (SW) 21:41:42 145.825
50 SAT 11 Feb 21:39:17 21:41:40 16° 65° (ENE) 21:44:03 437.505
HUMSAT D 11 Feb 21:40:15 21:44:20 78° 76° (ENE) 21:48:26 437.325/437.525
ZACube-1 11 Feb 21:40:24 21:44:08 31° 264° (W) 21:47:51 437.345
FUNcube-1 11 Feb 21:48:33 21:52:07 27° 265° (W) 21:55:38 145.935
DELFI C3 11 Feb 21:50:48 21:54:22 31° 264° (W) 21:57:59 145.870
VELOX 1 11 Feb 21:58:56 22:02:41 27° 67° (ENE) 22:06:26 145.980
Cosmos 2499 11 Feb 22:00:58 22:08:40 43° 273° (W) 22:15:50 435.465 / 435.565
UNISAT 6 11 Feb 22:06:25 22:10:16 30° 96° (E) 22:14:09 437.425
GONETS M04 11 Feb 22:10:34 22:16:12 19° 284° (WNW) 22:21:51
AISAT 11 Feb 22:15:29 22:19:40 41° 70° (ENE) 22:23:52 437.250
UKube-1 11 Feb 22:16:34 22:20:33 36° 69° (ENE) 22:24:33 .
Oscar 11 11 Feb 22:21:44 22:22:12 10° 272° (W) 22:22:41 145.826/435.025
SPROUT 11 Feb 22:23:55 22:26:22 15° 63° (ENE) 22:28:50 437.525
POPSAT HIP 1 11 Feb 22:25:56 22:26:59 11° 89° (E) 22:28:03 437.405
CUBEBUG 1 11 Feb 22:28:50 22:33:02 44° 71° (ENE) 22:37:16 437.445
NANOSAT C BR1 11 Feb 22:28:54 22:30:21 12° 89° (E) 22:31:47 145.865
DUCHIFAT 1 11 Feb 22:29:34 22:30:46 11° 89° (E) 22:31:58 145.980
DX 1 11 Feb 22:32:04 22:36:24 63° 73° (ENE) 22:40:45 434.975-435.025
QB50P1 11 Feb 22:37:08 22:39:36 15° 91° (E) 22:42:03 145.935-145.965
ESTCUBE 1 11 Feb 22:45:36 22:50:08 88° 83° (E) 22:54:43 437.505/2401.250
ANTELSAT 11 Feb 22:51:04 22:55:26 88° 104° (ESE) 22:59:52 437.575/2403.000
TIGRISAT 11 Feb 22:57:12 23:01:32 83° 287° (WNW) 23:05:58 435.000
AIST 1 11 Feb 22:59:11 23:01:18 13° 276° (W) 23:03:23
RS-15 11 Feb 23:05:07 23:12:26 19° 264° (W) 23:19:49 29.354- 29.394
50 SAT 11 Feb 23:11:57 23:15:24 37° 262° (W) 23:18:54 437.505
BUGSAT 1 11 Feb 23:20:15 23:23:20 21° 94° (E) 23:26:22 437.445
POLYITAN 1 11 Feb 23:29:21 23:33:30 56° 101° (E) 23:37:38 437.675
QB50P2 11 Feb 23:29:53 23:34:03 59° 101° (E) 23:38:12 145.880/145.840
BEESAT 3 11 Feb 23:31:17 23:31:57 10° 32° (NNE) 23:32:36 437.485
VELOX 1 11 Feb 23:35:04 23:39:03 32° 263° (W) 23:43:04 145.980
UNISAT 6 11 Feb 23:43:15 23:46:55 27° 293° (WNW) 23:50:38 437.425
AISAT 11 Feb 23:52:57 23:56:19 21° 267° (W) 23:59:41 437.250
UKube-1 11 Feb 23:53:21 23:56:43 22° 266° (W) 00:00:06 .
SPROUT 11 Feb 23:57:40 00:01:54 57° 259° (W) 00:06:09 437.525
TISAT 1 11 Feb 23:58:10 00:02:17 54° 73° (ENE) 00:06:25 437.305
BEESAT 2 11 Feb 23:58:43 00:00:23 12° 34° (NE) 00:02:03 435.950
POPSAT HIP 1 11 Feb 23:59:04 00:03:16 69° 286° (WNW) 00:07:26 437.405
PHONESAT 2.4 12 Feb 00:01:19 00:03:35 17° 156° (SSE) 00:05:51 2401.200-2431.200
NANOSAT C BR1 12 Feb 00:02:22 00:06:32 65° 286° (WNW) 00:10:41 145.865
DUCHIFAT 1 12 Feb 00:02:47 00:06:56 67° 286° (WNW) 00:11:05 145.980
ITUPSAT 1 12 Feb 00:04:56 00:07:36 15° 60° (ENE) 00:10:16 437.325
CUSAT 1 12 Feb 00:05:47 00:11:19 21° 82° (E) 00:16:46 437.405
CUBEBUG 1 12 Feb 00:06:24 00:09:33 19° 268° (W) 00:12:42 437.445
DX 1 12 Feb 00:10:57 00:13:00 13° 270° (W) 00:15:05 434.975-435.025
BEESAT 12 Feb 00:11:24 00:14:29 17° 61° (ENE) 00:17:35 436.000
QB50P1 12 Feb 00:11:36 00:15:40 49° 288° (WNW) 00:19:44 145.935-145.965
ANTELSAT 12 Feb 00:30:36 00:31:30 11° 301° (WNW) 00:32:24 437.575/2403.000
BUGSAT 1 12 Feb 00:55:10 00:58:48 33° 291° (WNW) 01:02:24 437.445
DANDE 12 Feb 00:56:26 01:03:03 29° 84° (E) 01:09:59 436.750
SWISSCUBE 12 Feb 01:02:08 01:06:46 55° 71° (ENE) 01:11:28 437.505
Cosmos 2491 12 Feb 01:02:20 01:10:08 34° 68° (ENE) 01:17:53 435.465 / 435.565
POLYITAN 1 12 Feb 01:06:31 01:08:53 15° 298° (WNW) 01:11:14 437.675
BEESAT 3 12 Feb 01:06:38 01:10:34 57° 52° (NE) 01:14:27 437.485
QB50P2 12 Feb 01:07:09 01:09:24 14° 298° (WNW) 01:11:39 145.880/145.840
KKS-1 12 Feb 01:16:37 01:17:29 10° 58° (ENE) 01:18:21 437.445
BEESAT 2 12 Feb 01:35:00 01:39:01 73° 55° (NE) 01:42:59 435.950
TISAT 1 12 Feb 01:36:03 01:38:18 14° 269° (W) 01:40:32 437.305
PHONESAT 2.4 12 Feb 01:37:17 01:40:23 39° 172° (S) 01:43:29 2401.200-2431.200
Oscar 19 12 Feb 01:39:35 01:44:43 67° 102° (ESE) 01:49:48 437.125/150
ITUPSAT 1 12 Feb 01:40:05 01:44:51 73° 257° (WSW) 01:49:40 437.325
CUSAT 1 12 Feb 01:44:35 01:52:42 89° 98° (E) 02:00:37 437.405
BEESAT 12 Feb 01:47:06 01:51:48 61° 259° (W) 01:56:33 436.000
YUBILEINY 12 Feb 01:54:24 02:01:20 27° 81° (E) 02:08:18 435.215
JAS-2 12 Feb 02:09:19 02:15:00 83° 103° (ESE) 02:20:14 435.910
AIST 2 12 Feb 02:10:49 02:14:12 23° 43° (NE) 02:17:31 435.215
STARS 12 Feb 02:26:21 02:30:06 28° 67° (ENE) 02:33:52 437.465
Gurwin Techsat 1B 12 Feb 02:29:10 02:34:31 72° 103° (ESE) 02:39:50 435.225
DANDE 12 Feb 02:37:22 02:45:21 70° 283° (WNW) 02:53:51 436.750
SWISSCUBE 12 Feb 02:41:46 02:44:55 17° 269° (W) 02:48:05 437.505
BEESAT 3 12 Feb 02:45:46 02:47:52 14° 250° (WSW) 02:49:56 437.485
KKS-1 12 Feb 02:48:52 02:53:20 87° 76° (ENE) 02:57:49 437.445
ITAMSAT 1 12 Feb 02:53:30 02:58:43 63° 102° (ESE) 03:03:54 435.822/435.867
Cosmos 2491 12 Feb 02:58:54 03:07:24 58° 269° (W) 03:15:54 435.465 / 435.565
MOZHAYETS 4 12 Feb 02:59:42 03:04:01 43° 71° (ENE) 03:08:23
AO-7 12 Feb 03:07:41 03:14:45 30° 95° (E) 03:21:44 29.400- 29.500
PHONESAT 2.4 12 Feb 03:14:17 03:17:23 39° 188° (S) 03:20:27 2401.200-2431.200
BEESAT 2 12 Feb 03:15:11 03:16:19 11° 252° (WSW) 03:17:26 435.950
Oscar 19 12 Feb 03:20:08 03:23:31 18° 300° (WNW) 03:26:51 437.125/150
CUSAT 1 12 Feb 03:29:42 03:35:52 23° 297° (WNW) 03:41:51 437.405
CUBESAT XI-V 12 Feb 03:48:34 03:51:35 17° 62° (ENE) 03:54:35 437.345
YUBILEINY 12 Feb 03:48:34 03:57:19 70° 281° (W) 04:06:11 435.215
AIST 2 12 Feb 03:48:56 03:52:53 44° 242° (WSW) 03:56:47 435.215
Cosmos 2504 12 Feb 03:52:01 03:59:27 34° 83° (E) 04:07:05 435.465 / 435.565
SO-50 12 Feb 03:52:56 03:57:08 29° 114° (ESE) 04:01:24 436.795
JAS-2 12 Feb 03:56:09 03:59:14 15° 305° (NW) 04:02:12 435.910
STARS 12 Feb 04:02:35 04:06:25 29° 264° (W) 04:10:15 437.465
HORYU 2 12 Feb 04:06:05 04:09:57 28° 96° (E) 04:13:48 437.375
Gurwin Techsat 1B 12 Feb 04:10:28 04:13:53 18° 301° (WNW) 04:17:17 435.225
DANDE 12 Feb 04:24:33 04:29:53 18° 304° (NW) 04:35:18 436.750
ITAMSAT 1 12 Feb 04:34:03 04:37:41 19° 300° (WNW) 04:41:19 435.822/435.867
MOZHAYETS 4 12 Feb 04:38:02 04:41:24 20° 268° (W) 04:44:47
PHONESAT 2.4 12 Feb 04:51:57 04:54:10 17° 205° (SSW) 04:56:22 2401.200-2431.200
AO-7 12 Feb 04:59:50 05:08:04 66° 294° (WNW) 05:16:14 29.400- 29.500
M-CUBED/EXP-1 PRIME 12 Feb 05:06:11 05:09:32 58° 292° (WNW) 05:13:05 437.505
Cubesat XI-IV 12 Feb 05:06:37 05:07:45 11° 87° (E) 05:08:52 437.490
AUBIESAT-1 12 Feb 05:13:43 05:17:08 58° 291° (WNW) 05:20:44 437.475
CUBESAT XI-V 12 Feb 05:23:50 05:28:29 60° 260° (W) 05:33:11 437.345
STRAND 1 12 Feb 05:27:21 05:31:25 25° 63° (ENE) 05:35:31 437.568
SO-50 12 Feb 05:32:49 05:37:30 43° 313° (NW) 05:42:14 436.795
HORYU 2 12 Feb 05:42:36 05:46:28 30° 293° (WNW) 05:50:20 437.375
Cosmos 2504 12 Feb 05:43:48 05:52:20 60° 284° (WNW) 06:01:10 435.465 / 435.565
YUBILEINY 12 Feb 05:51:09 05:56:02 16° 305° (NW) 06:00:58 435.215
PRISM 12 Feb 05:55:25 05:56:57 12° 60° (ENE) 05:58:29 437.425
LilacSat-2 12 Feb 05:56:06 05:59:11 23° 95° (E) 06:02:15 437.200
BRITE-PL 12 Feb 06:20:57 06:24:58 28° 93° (E) 06:28:43 437.365/2234.400
CUTE-I 12 Feb 06:28:40 06:34:02 62° 102° (ESE) 06:39:21 437.470
O/OREOS (USA 219) 12 Feb 06:31:06 06:33:30 14° 99° (E) 06:35:54 437.305
Cubesat XI-IV 12 Feb 06:43:12 06:48:38 82° 104° (ESE) 06:54:01 437.490
DOVE 4 12 Feb 06:44:18 06:45:17 11° 88° (E) 06:46:16 437.250
AO-7 12 Feb 06:54:23 06:59:18 17° 316° (NW) 07:04:12 29.400- 29.500
STRAND 1 12 Feb 07:05:25 07:10:19 46° 261° (W) 07:15:16 437.568
GOMX 1 12 Feb 07:13:26 07:17:41 46° 98° (E) 07:21:43 467.674
SO-50 12 Feb 07:17:36 07:19:19 12° 334° (NNW) 07:21:01 436.795
GONETS M04 12 Feb 07:21:02 07:27:08 22° 78° (ENE) 07:33:15
PRISM 12 Feb 07:27:32 07:31:41 74° 257° (WSW) 07:35:54 437.425
LilacSat-2 12 Feb 07:30:19 07:33:29 26° 291° (WNW) 07:36:39 437.200
CANX-2 12 Feb 07:35:31 07:38:40 20° 92° (E) 07:41:47 2200.000
Cosmos 2504 12 Feb 07:43:50 07:47:56 14° 307° (NW) 07:52:03 435.465 / 435.565
BRITE-PL 12 Feb 07:59:21 08:03:28 30° 293° (WNW) 08:07:19 437.365/2234.400
O/OREOS (USA 219) 12 Feb 08:07:56 08:12:21 60° 296° (WNW) 08:16:51 437.305
COMPASS 1 12 Feb 08:08:20 08:11:38 22° 93° (E) 08:14:54 437.405
CUTE-I 12 Feb 08:09:44 08:13:37 21° 299° (WNW) 08:17:28 437.470
ANTELSAT 12 Feb 08:19:08 08:19:31 10° 59° (ENE) 08:19:55 437.575/2403.000
DOVE 4 12 Feb 08:19:20 08:23:32 66° 286° (WNW) 08:27:38 437.250
HO-68 12 Feb 08:20:02 08:27:05 54° 101° (E) 08:34:06 435.675
TIGRISAT 12 Feb 08:24:13 08:25:26 11° 60° (ENE) 08:26:39 435.000
Cubesat XI-IV 12 Feb 08:24:52 08:28:01 16° 302° (WNW) 08:31:10 437.490
CUTE 1.7 + AOD 2 12 Feb 08:24:53 08:29:07 58° 100° (E) 08:33:22 437.475
SEEDS 12 Feb 08:26:40 08:30:47 45° 99° (E) 08:34:53 437.485
Oscar 11 12 Feb 08:28:46 08:30:44 13° 89° (E) 08:32:40 145.826/435.025
AAUSAT CUBESAT 2 12 Feb 08:34:04 08:37:54 33° 97° (E) 08:41:42 437.432
UWE-3 12 Feb 08:39:17 08:42:13 18° 93° (E) 08:45:11 435.000/436.395/437.385
CUBEBUG 2 12 Feb 08:43:36 08:47:14 27° 96° (E) 08:50:53 437.445
Cosmos 2499 12 Feb 08:45:10 08:52:47 35° 84° (E) 09:00:29 435.465 / 435.565
GOMX 1 12 Feb 08:52:30 08:55:24 17° 297° (WNW) 08:58:13 467.674
CINEMA 3 12 Feb 08:54:14 08:58:24 82° 282° (WNW) 09:02:35 145.822/145.860
AO-85 12 Feb 08:54:42 08:58:42 22° 109° (ESE) 09:02:46 145.980
PCSat 12 Feb 09:01:01 09:03:14 13° 102° (ESE) 09:05:27 145.827
UNISAT 6 12 Feb 09:06:54 09:10:41 31° 69° (ENE) 09:14:27 437.425
RS-15 12 Feb 09:10:09 09:15:28 15° 94° (E) 09:20:53 29.354- 29.394
CANX-2 12 Feb 09:10:40 09:14:41 40° 289° (WNW) 09:18:42 2200.000
GONETS M04 12 Feb 09:14:09 09:22:51 82° 279° (W) 09:31:39
POPSAT HIP 1 12 Feb 09:20:23 09:21:43 11° 60° (ENE) 09:23:03 437.405
NANOSAT C BR1 12 Feb 09:23:07 09:24:40 12° 61° (ENE) 09:26:14 145.865
DUCHIFAT 1 12 Feb 09:23:33 09:24:54 11° 60° (ENE) 09:26:15 145.980
HUMSAT D 12 Feb 09:24:25 09:25:47 11° 89° (E) 09:27:08 437.325/437.525
ZACube-1 12 Feb 09:26:30 09:30:31 40° 98° (E) 09:34:35 437.345
DELFI C3 12 Feb 09:27:10 09:30:42 28° 96° (E) 09:34:13 145.870
QB50P1 12 Feb 09:31:32 09:33:57 15° 63° (ENE) 09:36:23 145.935-145.965
FUNcube-1 12 Feb 09:34:06 09:38:11 47° 99° (E) 09:42:20 145.935
COMPASS 1 12 Feb 09:43:27 09:47:17 35° 290° (WNW) 09:51:08 437.405
AIST 1 12 Feb 09:50:52 09:54:43 30° 90° (E) 09:58:36
ANTELSAT 12 Feb 09:51:17 09:55:34 88° 247° (WSW) 09:59:52 437.575/2403.000
TIGRISAT 12 Feb 09:57:13 10:01:31 80° 255° (WSW) 10:05:48 435.000
CUTE 1.7 + AOD 2 12 Feb 10:02:05 10:04:31 15° 297° (WNW) 10:06:57 437.475
Oscar 11 12 Feb 10:02:58 10:07:16 63° 287° (WNW) 10:11:34 145.826/435.025
SEEDS 12 Feb 10:03:16 10:06:10 18° 296° (WNW) 10:09:03 437.485
HO-68 12 Feb 10:08:14 10:14:30 33° 300° (WNW) 10:20:43 435.675
AAUSAT CUBESAT 2 12 Feb 10:09:54 10:13:14 23° 293° (WNW) 10:16:34 437.432
BUGSAT 1 12 Feb 10:11:41 10:14:43 20° 65° (ENE) 10:17:42 437.445
UWE-3 12 Feb 10:14:54 10:18:52 41° 289° (WNW) 10:22:55 435.000/436.395/437.385
CUBEBUG 2 12 Feb 10:20:15 10:23:49 27° 292° (WNW) 10:27:26 437.445
POLYITAN 1 12 Feb 10:23:16 10:27:22 51° 72° (ENE) 10:31:27 437.675
QB50P2 12 Feb 10:23:44 10:27:52 53° 73° (ENE) 10:32:00 145.880/145.840
